Date,TemperatureHighF,TemperatureAvgF,TemperatureLowF,DewpointHighF,DewpointAvgF,DewpointLowF,HumidityHigh,HumidityAvg,HumidityLow,PressureMaxIn,PressureMinIn,WindSpeedMaxMPH,WindSpeedAvgMPH,GustSpeedMaxMPH,PrecipitationSumIn
2012-12-1,68.2,55.7,47.3,50.2,44.9,40.0,77,67,51,30.34,30.11,6,1,9,0.00
2012-12-2,66.7,61.5,54.3,54.7,51.5,45.2,73,69,62,30.16,30.09,8,3,13,0.00
2012-12-3,75.4,65.0,58.6,57.7,53.0,49.1,73,65,51,30.19,30.12,7,3,11,0.00
2012-12-4,64.2,59.6,49.5,58.9,53.6,45.3,91,81,66,30.19,30.03,8,3,14,0.45
2012-12-5,64.9,50.0,41.4,50.7,41.9,32.9,91,75,46,30.28,30.13,8,1,12,0.00
2012-12-6,52.9,45.7,36.7,46.6,38.7,29.6,83,76,70,30.13,29.90,7,2,8,0.00
2012-12-7,59.5,55.0,51.4,54.0,50.7,46.6,88,85,81,29.91,29.79,5,1,6,0.16
2012-12-8,59.5,56.9,53.6,55.9,53.7,50.4,92,89,86,29.91,29.78,5,2,9,0.81
2012-12-9,60.6,57.2,53.4,58.2,54.7,50.5,94,91,89,29.91,29.67,6,2,12,0.83
2012-12-10,60.3,48.1,35.4,57.3,45.4,31.6,94,90,86,29.87,29.61,6,2,7,1.22
2012-12-11,43.5,35.5,30.9,32.0,29.3,25.1,88,78,59,30.12,29.87,5,2,6,0.00
2012-12-12,54.1,36.5,27.1,35.9,27.4,21.8,83,71,45,30.31,30.12,6,1,8,0.00
2012-12-13,32.7,31.6,30.4,25.4,24.6,23.5,77,75,73,30.23,30.21,2,0,2,0.00
2012-12-15,57.0,53.7,43.9,47.1,42.1,36.1,75,64,60,30.03,29.78,6,3,10,0.00
2012-12-16,61.0,58.1,55.8,54.8,52.4,47.4,85,81,70,29.78,29.63,5,3,8,0.00
2012-12-17,62.4,54.4,48.4,54.7,50.1,44.8,91,86,73,29.70,29.50,10,2,17,0.48
2012-12-18,51.3,45.4,41.4,45.5,39.1,35.6,90,79,63,29.82,29.56,8,4,11,0.02
2012-12-19,62.1,49.7,41.7,45.0,40.0,35.6,82,69,51,29.98,29.75,7,2,9,0.00
2012-12-20,54.5,47.2,34.7,48.4,40.6,26.8,91,78,66,29.86,29.29,16,7,29,0.70
2012-12-21,34.5,33.6,32.9,27.6,26.9,26.1,78,76,74,29.62,29.59,12,10,20,0.00
2012-12-28,40.1,37.9,34.7,33.6,32.0,28.9,85,79,73,30.01,29.68,3,2,5,0.11
2012-12-29,36.3,33.4,28.6,32.9,29.8,23.2,90,87,80,30.14,29.60,6,4,15,0.33
2012-12-30,40.3,30.8,25.7,27.3,23.6,19.5,83,74,58,30.38,30.14,7,3,10,0.00
2012-12-31,39.0,35.1,29.3,32.9,27.6,23.6,82,74,67,30.24,29.97,5,2,9,0.06